Location: Arboyeti
(42.1122°N, 44.6017°E)
Time: 17:18:15
(UTC+00:00)

Cosmos 1825 Rocket - Pass Details

Date: 19 April 2021
Orbit: 604 x 630 km, 82.5° (Epoch: 06 May)

Event Time Altitude Azimuth Distance (km) Brightness Sun altitude
Rises 16:16:31 0° 352° (N) 2,889 7.4 -5.9°
Reaches altitude 10° 16:18:45 10° 354° (N) 1,983 6.6 -6.3°
Maximum altitude 16:23:09 81° 82° (E) 631 3.5 -7.1°
Drops below altitude 10° 16:27:33 10° 170° (S) 1,984 5.8 -7.8°
Sets 16:29:46 0° 171° (S) 2,890 6.7 -8.2°
